Tracking 27380 objects as of 6-Jun-2023
HD Live streaming from Space Station
objects crossing your sky now

ONEWEB-0363

Track ONEWEB-0363 now!
10-day predictions
ONEWEB-0363 is classified as:


NORAD ID: 49289
Int'l Code: 2021-090L
Perigee: 1,187.3 km
Apogee: 1,190.5 km
Inclination: 87.9 °
Period: 109.0 minutes
Semi major axis: 7559 km
RCS: Unknown
Launch date: October 14, 2021
Source: United Kingdom (UK)
Launch site: VOSTOCHNY COSMODROME (VOSTO)
Your satellite tracking list
Your tracking list is empty




NASA's NSSDC Master Catalog

Two Line Element Set (TLE):
1 49289U 21090L   23156.90486897  .00000012  00000-0 -25340-5 0  9995
2 49289  87.9224 134.8846 0002154  95.7230 264.4149 13.20772682 84143
Source of the keplerian elements: AFSPC